This is the latest recevied weather packets stored in our database for station/object IW0REF-9. If no packets are shown the sender has not sent any weather packets the latest 10 day(s).
| Time | Temp. | Humidity | Pressure | Rain* | Wind** | Luminosity | Snow |
|---|---|---|---|---|---|---|---|
| 1788564958 | 27.78° C | 23% | 1003.9 hPa | - | - | - | - |
| 1788564058 | 27.78° C | 24% | 1004 hPa | - | - | - | - |
| 1788563158 | 27.78° C | 23% | 1004 hPa | - | - | - | - |
| 1788562258 | 27.78° C | 23% | 1004.1 hPa | - | - | - | - |
| 1788561358 | 27.78° C | 23% | 1004 hPa | - | - | - | - |
| 1788560458 | 27.78° C | 23% | 1004.1 hPa | - | - | - | - |
| 1788559557 | 28.33° C | 23% | 1004 hPa | - | - | - | - |
| 1788558657 | 28.33° C | 23% | 1004.1 hPa | - | - | - | - |
| 1788557757 | 28.33° C | 23% | 1004.1 hPa | - | - | - | - |
| 1788556856 | 28.89° C | 22% | 1004 hPa | - | - | - | - |
| 1788555956 | 28.89° C | 22% | 1004.1 hPa | - | - | - | - |
| 1788555056 | 28.89° C | 21% | 1004 hPa | - | - | - | - |
| 1788554156 | 28.89° C | 22% | 1004 hPa | - | - | - | - |
| 1788553256 | 28.89° C | 21% | 1004.1 hPa | - | - | - | - |
| 1788552356 | 29.44° C | 21% | 1004.2 hPa | - | - | - | - |
| 1788551456 | 29.44° C | 21% | 1004.2 hPa | - | - | - | - |
| 1788550556 | 30° C | 20% | 1004.2 hPa | - | - | - | - |
| 1788549656 | 30.56° C | 19% | 1004 hPa | - | - | - | - |
| 1788548756 | 31.11° C | 19% | 1003.9 hPa | - | - | - | - |
| 1788547856 | 31.11° C | 19% | 1003.8 hPa | - | - | - | - |
| 1788546955 | 31.11° C | 18% | 1003.7 hPa | - | - | - | - |
| 1788546055 | 31.67° C | 18% | 1003.5 hPa | - | - | - | - |
| 1788545155 | 32.22° C | 17% | 1003.3 hPa | - | - | - | - |
| 1788544255 | 32.78° C | 17% | 1003.1 hPa | - | - | - | - |
| 1788543355 | 34.44° C | 15% | 1003 hPa | - | - | - | - |
* Rain since midnight (hover to see other rain measurements)
** Current wind speed in m/s (hover to see current wind gust speed)